Effective Sunday, March 17, 2024, the National Weather Service National Data Buoy Center will discontinue its Dial-A-Buoy Interactive Voice Response system. For more information, see Service Change Notice 24-06 (PDF).

Station 41052 - South of St. John, VI Image indicating link to RSS feed of recent meteorological observations for station 41052


Conditions at 41052 as of
(1:00 pm AST)
1700 GMT on 03/01/2024:
     

Click on the graph icon in the table below to see a time series plot of the last five days of that observation.

5-day plot - Wind Direction Wind Direction (WDIR):ENE ( 60 deg true )
5-day plot - Wind Speed Wind Speed (WSPD): 17.5 kts
5-day plot - Wind Gust Wind Gust (GST): 21.4 kts
5-day plot - Wave Height Wave Height (WVHT): 3.3 ft
5-day plot - Dominant Wave Period Dominant Wave Period (DPD): 5 sec
5-day plot - Mean Wave Direction Mean Wave Direction (MWD): E ( 82 deg true )
5-day plot - Atmospheric Pressure Atmospheric Pressure (PRES):30.06 in
5-day plot - Pressure Tendency Pressure Tendency (PTDY):-0.05 in ( Falling )
5-day plot - Air Temperature Air Temperature (ATMP): 81.0 °F
5-day plot - Water Temperature Water Temperature (WTMP): 80.8 °F
5-day plot - Wind Speed at 10 Meters Wind Speed at 10 meters (WSPD10M): 19.4 kts
5-day plot - Wind Speed at 20 Meters Wind Speed at 20 meters (WSPD20M): 21.4 kts
5-day plot -  Wind Speed, Wind Gust and Atmospheric Pressure Combined plot of Wind Speed, Gust, and Air Pressure
Previous observations
TIME
(AST)
5-day plot - Wind Direction
WDIR
 
5-day plot - Wind Speed
WSPD
kts
5-day plot - Wind Gust
GST
kts
5-day plot - Wave Height
WVHT
ft
5-day plot - Dominant Wave Period
DPD
sec
5-day plot - Average Wave Period
APD
sec
5-day plot - Mean Wave Direction
MWD
 
5-day plot - Atmospheric Pressure
PRES
in
5-day plot - Pressure Tendency
PTDY
in
5-day plot - Air Temperature
ATMP
°F
5-day plot - Water Temperature
WTMP
°F
5-day plot - Dew Point
DEWP
°F
5-day plot - Salinity
SAL
psu
5-day plot - Visibility
VIS
nmi
5-day plot - Tide (above MLLW)
TIDE
ft
2024-03-01 12:50 pmENE 17.5 19.4----30.07- 81.0-----
2024-03-01 12:40 pmENE 15.5 19.4----30.07- 81.0-----
2024-03-01 12:30 pm NE 17.5 19.4----30.08- 81.0-----
2024-03-01 12:20 pmENE 17.5 21.4----30.08- 81.0-----
2024-03-01 12:10 pmENE 15.5 21.4 3.3-- E30.08- 81.0-----
2024-03-01 12:00 pm NE 17.5 21.4 3.3 5- E30.09+0.00 80.8 80.6----
2024-03-01 11:50 amENE 17.5 21.4----30.09- 81.0-----
2024-03-01 11:40 amENE 17.5 19.4----30.09- 80.8-----
2024-03-01 11:30 amENE 17.5 21.4----30.10- 80.8-----
2024-03-01 11:20 am NE 15.5 19.4----30.10- 79.9-----
2024-03-01 11:10 amENE 17.5 21.4 3.0-- E30.10- 80.1-----
2024-03-01 11:00 amENE 15.5 19.4 3.0 4- E30.11+0.04 81.0 80.6----
2024-03-01 10:50 amENE 17.5 19.4----30.11- 80.8-----
2024-03-01 10:40 amENE 15.5 21.4----30.11- 80.4-----
2024-03-01 10:30 am NE 15.5 19.4----30.11- 79.9-----
2024-03-01 10:20 am NE 15.5 19.4----30.11- 79.2-----
2024-03-01 10:10 am NE 13.6 17.5 3.3-- E30.11- 77.9-----
2024-03-01 10:00 am NE 13.6 17.5 3.3 5- E30.11+0.06 76.8 80.6----
2024-03-01 09:50 am NE 17.5 21.4----30.11- 77.0-----
2024-03-01 09:40 am NE 19.4 21.4----30.11- 77.7-----
2024-03-01 09:30 am NE 17.5 21.4----30.10- 78.4-----
2024-03-01 09:20 am NE 17.5 19.4----30.10- 78.6-----
2024-03-01 09:10 am NE 15.5 19.4 3.0-- E30.09- 78.4-----
2024-03-01 09:00 amENE 17.5 21.4 3.0 5- E30.09+0.05 77.7 80.6----
2024-03-01 08:50 am NE 15.5 21.4----30.09- 79.5-----
2024-03-01 08:40 am NE 13.6 17.5----30.09- 79.3-----
2024-03-01 08:30 am NE 15.5 19.4----30.08- 79.3-----
2024-03-01 08:20 am NE 15.5 19.4----30.07- 79.5-----
2024-03-01 08:10 am NE 15.5 19.4 3.3-- E30.07- 79.3-----
2024-03-01 08:00 am NE 13.6 17.5 3.3 5- E30.07+0.05 79.2 80.6----
2024-03-01 07:50 am NE 17.5 21.4----30.07- 79.3-----
2024-03-01 07:40 am NE 13.6 17.5----30.06- 79.9-----
2024-03-01 07:30 am NE 13.6 17.5----30.06- 79.7-----
2024-03-01 07:20 am NE 15.5 19.4----30.06- 79.5-----
2024-03-01 07:10 am NE 13.6 17.5 3.0-- E30.06- 79.5-----
2024-03-01 07:00 am NE 15.5 17.5 3.0 9- E30.06+0.04 79.3 80.6----
2024-03-01 06:50 amENE 15.5 17.5----30.05- 79.7-----
2024-03-01 06:40 am NE 13.6 17.5----30.05- 79.7-----
2024-03-01 06:30 am NE 13.6 17.5----30.04- 79.9-----
2024-03-01 06:20 am NE 13.6 19.4----30.04- 79.9-----
2024-03-01 06:10 am NE 11.7 15.5 2.6-- E30.04- 79.9-----
2024-03-01 06:00 amNNE 11.7 13.6 2.6 7- E30.03+0.02 79.9 80.6----
2024-03-01 05:50 am NE 11.7 15.5----30.03- 79.9-----
2024-03-01 05:40 am NE 13.6 17.5----30.03- 79.9-----
2024-03-01 05:30 am NE 13.6 15.5----30.03- 79.9-----
2024-03-01 05:20 am NE 11.7 15.5----30.03- 79.9-----
2024-03-01 05:10 amNNE 11.7 13.6 2.6-- E30.03- 79.9-----
2024-03-01 05:00 amNNE 11.7 15.5 2.6 8- E30.02-0.01 79.9 80.6----
2024-03-01 04:50 amNNE 11.7 13.6----30.02- 79.9-----
2024-03-01 04:40 am NE 11.7 15.5----30.02- 80.1-----
2024-03-01 04:30 am NE 13.6 17.5----30.01- 80.1-----
2024-03-01 04:20 amNNE 13.6 17.5----30.01- 80.2-----
2024-03-01 04:10 am NE 11.7 13.6 2.6-- E30.02- 80.2-----
2024-03-01 04:00 am NE 11.7 15.5 2.6 7- E30.01-0.04 80.2 80.6----
2024-03-01 03:50 am NE 13.6 19.4----30.01- 80.4-----
2024-03-01 03:40 am NE 9.7 11.7----30.01- 80.4-----
2024-03-01 03:30 am NE 11.7 13.6----30.01- 80.4-----
2024-03-01 03:20 am NE 9.7 11.7----30.01- 80.1-----
2024-03-01 03:10 am NE 11.7 15.5 2.3-- E30.01- 80.4-----
2024-03-01 03:00 am NE 9.7 13.6 2.3 10- E30.02-0.05 80.6 80.6----
2024-03-01 02:50 am NE 11.7 13.6----30.02- 80.4-----
2024-03-01 02:40 am NE 9.7 13.6----30.02- 80.6-----
2024-03-01 02:30 am NE 9.7 13.6----30.02- 80.6-----
2024-03-01 02:20 am NE 9.7 13.6----30.03- 80.6-----
2024-03-01 02:10 am NE 9.7 11.7 2.3-- E30.03- 80.6-----
2024-03-01 02:00 am NE 11.7 13.6 2.3 7- E30.03-0.03 80.8 80.8----
2024-03-01 01:50 am NE 11.7 13.6----30.03- 80.8-----
2024-03-01 01:40 am NE 11.7 13.6----30.04- 80.8-----
2024-03-01 01:30 am NE 11.7 13.6----30.04- 80.8-----
2024-03-01 01:20 am NE 11.7 13.6----30.05- 80.8-----
2024-03-01 01:10 amNNE 11.7 13.6 2.3-- E30.05- 80.8-----
2024-03-01 01:00 am NE 11.7 13.6 2.3 8- E30.05-0.01 80.8 80.8----
2024-03-01 12:50 am NE 11.7 13.6----30.06- 81.0-----
2024-03-01 12:40 am NE 11.7 13.6----30.06- 80.8-----
2024-03-01 12:30 amNNE 11.7 13.6----30.06- 81.0-----
2024-03-01 12:20 amNNE 11.7 13.6----30.06- 80.8-----
2024-03-01 12:10 amNNE 11.7 13.6 2.3-- E30.06- 80.8-----
2024-03-01 12:00 amNNE 11.7 11.7 2.3 8- E30.06+0.00 80.8 80.8----
2024-02-29 11:50 pmNNE 9.7 11.7----30.06- 80.6-----
2024-02-29 11:40 pmNNE 11.7 13.6----30.06- 80.8-----
2024-02-29 11:30 pm NE 11.7 13.6----30.06- 80.8-----
2024-02-29 11:20 pm NE 9.7 13.6----30.06- 80.8-----
2024-02-29 11:10 pm NE 9.7 11.7 2.3-- E30.07- 80.8-----
2024-02-29 11:00 pmNNE 9.7 11.7 2.3 8- E30.06+0.02 80.6 80.8----
2024-02-29 10:50 pmNNE 9.7 11.7----30.06- 80.6-----
2024-02-29 10:40 pmNNE 11.7 15.5----30.06- 80.4-----
2024-02-29 10:30 pmNNE 13.6 15.5----30.06- 80.2-----
2024-02-29 10:20 pm NE 13.6 15.5----30.06- 80.6-----
2024-02-29 10:10 pm NE 13.6 17.5 2.3-- E30.07- 81.0-----
2024-02-29 10:00 pm NE 11.7 13.6 2.3 8- E30.06- 80.8 80.8----
2024-02-29 09:50 pm NE 11.7 13.6----30.07- 80.8-----
2024-02-29 09:40 pm NE 11.7 15.5----30.07- 81.0-----
2024-02-29 09:30 pm NE 11.7 15.5----30.06- 81.1-----
2024-02-29 09:20 pmNNE 11.7 15.5----30.06- 81.5-----
2024-02-29 09:10 pmNNE 11.7 13.6 2.0-- E30.06- 81.5-----
2024-02-29 09:00 pmNNE 11.7 13.6 2.0 9- E30.06+0.05 81.5 80.8----
2024-02-29 08:50 pmNNE 11.7 15.5----30.06- 81.5-----
2024-02-29 08:40 pmNNE 11.7 13.6----30.06- 81.5-----
2024-02-29 08:30 pmNNE 9.7 13.6----30.05- 81.5-----
2024-02-29 08:20 pmNNE 9.7 11.7----30.05- 81.5-----
2024-02-29 08:10 pmNNE 9.7 11.7 2.0-- E30.05- 81.5-----
2024-02-29 08:00 pmNNE 9.7 11.7 2.0 9- E30.04+0.04 81.5 80.8----
2024-02-29 07:50 pmNNE 11.7 13.6----30.04- 81.5-----
2024-02-29 07:40 pmNNE 9.7 13.6----30.03- 81.7-----
2024-02-29 05:00 pm N 11.7 13.6 2.3 9- E30.00-0.03 84.2 81.0----
2024-02-29 04:50 pmNNE 11.7 13.6----30.00- 84.2-----
2024-02-29 04:40 pmNNE 11.7 13.6----30.00- 83.8-----
2024-02-29 04:30 pm NE 11.7 13.6----30.00- 84.0-----
2024-02-29 04:20 pmENE 11.7 13.6----29.99- 84.2-----
2024-02-29 04:10 pmENE 11.7 13.6 2.0-- E30.00- 84.6-----
2024-02-29 04:00 pmENE 11.7 13.6 2.0 9- E30.00-0.05 85.3 81.1----
2024-02-29 03:50 pmENE 11.7 11.7----30.00- 85.1-----
2024-02-29 03:40 pmENE 11.7 13.6----30.00- 84.9-----
2024-02-29 03:30 pmENE 11.7 13.6----30.00- 84.7-----
2024-02-29 03:20 pmENE 11.7 13.6----30.00- 84.9-----
2024-02-29 03:10 pmENE 11.7 13.6 2.3-- E30.00- 84.6-----
2024-02-29 03:00 pmENE 9.7 11.7 2.3 9- E30.01-0.06 84.2 81.1----
2024-02-29 02:50 pm E 9.7 11.7----30.01- 83.8-----
2024-02-29 02:40 pm E 11.7 13.6----30.01- 83.3-----
2024-02-29 02:30 pmENE 9.7 11.7----30.01- 83.1-----
2024-02-29 02:20 pm E 9.7 13.6----30.02- 82.9-----
2024-02-29 02:10 pmENE 11.7 13.6 2.0-- E30.02- 82.9-----
2024-02-29 02:00 pm E 11.7 13.6 2.0 9- E30.03-0.06 82.9 81.1----
2024-02-29 01:50 pm E 9.7 11.7----30.03- 82.8-----

Detailed Wave Summary
for 41052 as of (1:00 pm AST)
1700 GMT on 03/01/2024:

These wave data are displayed in rounded times.

     

Click on the graph icon in the table below to see a time series plot of the last five days of that observation.

5-day plot - Significant Wave Height Significant Wave Height (WVHT): 3.3 ft
5-day plot - Wave Steepness Wave Steepness (STEEPNESS):VERY_STEEP
Previous observations
TIME
(AST)
5-day plot - Wave Height
WVHT
ft
5-day plot - Swell Height
SwH
ft
5-day plot - Swell Period
SwP
sec
5-day plot - Swell Direction
SwD
 
5-day plot - Wind Wave Height
WWH
ft
5-day plot - Wind Wave Period
WWP
sec
5-day plot - Wind Wave Direction
WWD
 
5-day plot - Wave Steepness
STEEPNESS
 
5-day plot - Average Wave Period
APD
sec
2024-03-01 12:00 pm 3.3------VERY_STEEP-
2024-03-01 11:00 am 3.0------VERY_STEEP-
2024-03-01 10:00 am 3.3------VERY_STEEP-
2024-03-01 09:00 am 3.0------VERY_STEEP-
2024-03-01 08:00 am 3.3------VERY_STEEP-
2024-03-01 07:00 am 3.0------ N/A-
2024-03-01 06:00 am 2.6------ AVERAGE-
2024-03-01 05:00 am 2.6------ N/A-
2024-03-01 04:00 am 2.6------ AVERAGE-
2024-03-01 03:00 am 2.3------ N/A-
2024-03-01 02:00 am 2.3------ N/A-
2024-03-01 01:00 am 2.3------ N/A-
2024-03-01 12:00 am 2.3------ N/A-
2024-02-29 11:00 pm 2.3------ N/A-
2024-02-29 10:00 pm 2.3------ N/A-
2024-02-29 09:00 pm 2.0------ N/A-
2024-02-29 08:00 pm 2.0------ N/A-
2024-02-29 07:00 pm 2.3------ N/A-
2024-02-29 06:00 pm 2.3------ N/A-
2024-02-29 05:00 pm 2.3------ N/A-
2024-02-29 04:00 pm 2.0------ N/A-
2024-02-29 03:00 pm 2.3------ N/A-
2024-02-29 02:00 pm 2.0------ N/A-

Disclaimer: Ocean current directions are reported to the nearest 10 degrees and speeds are measured to the nearest whole centimeter per second.

Ocean Current Data for 41052

Unit of Measure:   Time Zone:   
1:00 pm AST12:00 pm AST11:00 am AST
Depth
ft
Dir
°
Speed
kts
Dir
°
Speed
kts
Dir
°
Speed
kts
7 220 0.35200 0.12130 0.06
13 220 0.23240 0.17350 0.08
16 280 0.10250 0.14250 0.10
20 270 0.21230 0.43220 0.33
23 270 0.27250 0.43230 0.41
26 260 0.31250 0.45230 0.25
30 280 0.23250 0.49230 0.31
33 290 0.17260 0.49240 0.29
36 280 0.23260 0.49220 0.35
39 250 0.23260 0.45220 0.41
43 260 0.27260 0.35230 0.31
46 260 0.31290 0.47250 0.21
49 240 0.23260 0.37250 0.27
52 270 0.25250 0.37230 0.27
56 260 0.33280 0.27210 0.16
59 260 0.17260 0.25240 0.21
62 250 0.16260 0.29250 0.06
66 260 0.17250 0.27280 0.02
69 270 0.27250 0.23200 0.06
72 260 0.14280 0.21220 0.14
75 250 0.17240 0.33170 0.08
79 240 0.17260 0.17350 0.02
82 220 0.16230 0.25350 0.02
85 230 0.19230 0.21280 0.10
89 250 0.19260 0.23310 0.06
92 240 0.16260 0.12340 0.04
95 260 0.19270 0.14260 0.06
98 250 0.17260 0.10290 0.08
102 250 0.19220 0.17280 0.12
105 190 0.17260 0.14 30 0.06
108 220 0.23260 0.17190 0.10
112 230 0.08220 0.16160 0.10
115 230 0.16220 0.21220 0.14
118 260 0.08220 0.17 20 0.04
121 210 0.21230 0.14 10 0.12
125 220 0.19260 0.19190 0.06
128 190 0.19250 0.14250 0.14
131 140 0.33 90 0.12 10 0.08

Previous (up to 48) reports of ocean current data for 41052

Ocean Current Stick Plots are available in metric units only:

All Instruments - 1-day plot - ocean current 1-day plot     3-day plot - ocean current 3-day plot     5-day plot - ocean current 5-day plot     


Ocean Conditions at 41052 as of
(1:00 pm AST)
1700 GMT on 03/01/2024:

These oceanographic data are displayed in rounded times.

     

Click on the graph icon in the table below to see a time series plot of the last five days of that observation.

Depth (DEPTH): 3.3 ft
5-day plot - Ocean Temperature Ocean Temperature (OTMP):80.71 °F
Previous observations
TIME
(AST)
DEPTH
ft
5-day plot - Ocean Temperature
OTMP
°F
5-day plot - Conductivity
COND
mS/cm
5-day plot - Salinity
SAL
psu
5-day plot - Oxygen Concentration
O2%
%
5-day plot - Oxygen Concentration
O2PPM
ppm
5-day plot - Chlorophyll
CLCON
ug/l
5-day plot - Turbidity
TURB
FTU
5-day plot - pH
PH
 
5-day plot - Eh
EH
mv
2024-03-01 12:00 pm 3.380.64--------
2024-03-01 11:00 am 3.380.60--------
2024-03-01 10:00 am 3.380.58--------
2024-03-01 09:00 am 3.380.56--------
2024-03-01 08:00 am 3.380.62--------
2024-03-01 07:00 am 3.380.62--------
2024-03-01 06:00 am 3.380.60--------
2024-03-01 05:00 am 3.380.62--------
2024-03-01 04:00 am 3.380.62--------
2024-03-01 03:00 am 3.380.65--------
2024-03-01 02:00 am 3.380.69--------
2024-03-01 01:00 am 3.380.71--------
2024-03-01 12:00 am 3.380.73--------
2024-02-29 11:00 pm 3.380.76--------
2024-02-29 10:00 pm 3.380.76--------
2024-02-29 09:00 pm 3.380.85--------
2024-02-29 08:00 pm 3.380.85--------
2024-02-29 07:00 pm 3.380.96--------
2024-02-29 06:00 pm 3.381.05--------
2024-02-29 05:00 pm 3.381.01--------
2024-02-29 04:00 pm 3.381.12--------
2024-02-29 03:00 pm 3.381.18--------
2024-02-29 02:00 pm 3.381.16--------